EWG96U EDDL-LIMC

Flight info

Callsign EWG96U
Flight time N/A
Altitude 23000
Route KUMIK5Z/05R KUMIK L603 BOMBI/N0447F270 N850 UBENO/N0422F230 N850 RINEX/N0461F330 DCT KRH/N0461F320 DCT NATOR/N0461F330 DCT TRA N850 DEGAD Z424 BASGO/N0469F290 Z424 AKASU/N0399F190 Z424 RIXUV
Aircraft A319/M-SDE3FGHIRWY/LB1

Departure

Time 2026-05-06 07:15
Airport Düsseldorf Airport (EDDL)

Arrival

Time N/A
Airport Milan Malpensa International Airport (LIMC)
Time Latitude Longitude Altitude Speed Heading
2026-05-06 07:00 51.28206 6.76740 128 ft 0 kts 276°
2026-05-06 07:06 51.28205 6.76756 123 ft 4 kts 276°
2026-05-06 07:07 51.28200 6.76797 124 ft 4 kts 303°
2026-05-06 07:07 51.28185 6.76823 123 ft 4 kts 328°
2026-05-06 07:07 51.28161 6.76835 127 ft 4 kts
2026-05-06 07:07 51.28140 6.76829 129 ft 0 kts 14°
2026-05-06 07:10 51.28152 6.76833 126 ft 4 kts 11°
2026-05-06 07:10 51.28198 6.76842 129 ft 10 kts
2026-05-06 07:10 51.28284 6.76857 129 ft 14 kts
2026-05-06 07:10 51.28384 6.76850 125 ft 15 kts 330°
2026-05-06 07:11 51.28455 6.76750 125 ft 11 kts 291°
2026-05-06 07:11 51.28422 6.76636 122 ft 15 kts 233°
2026-05-06 07:11 51.28344 6.76470 122 ft 21 kts 232°
2026-05-06 07:11 51.28256 6.76286 126 ft 20 kts 233°
2026-05-06 07:12 51.28168 6.76102 129 ft 22 kts 232°
2026-05-06 07:12 51.28078 6.75914 126 ft 21 kts 233°
2026-05-06 07:12 51.27992 6.75732 129 ft 20 kts 233°
2026-05-06 07:12 51.27907 6.75555 128 ft 20 kts 232°
2026-05-06 07:13 51.27840 6.75389 123 ft 13 kts 264°
2026-05-06 07:13 51.27899 6.75302 125 ft 12 kts 336°
2026-05-06 07:13 51.27979 6.75265 124 ft 12 kts 13°
2026-05-06 07:13 51.28021 6.75328 124 ft 0 kts 53°
2026-05-06 07:14 51.28028 6.75343 123 ft 9 kts 53°
2026-05-06 07:15 51.28195 6.75695 128 ft 71 kts 52°
2026-05-06 07:15 51.28618 6.76578 125 ft 128 kts 52°
2026-05-06 07:15 51.29243 6.77862 406 ft 153 kts 50°
2026-05-06 07:15 51.29908 6.79247 1051 ft 161 kts 50°
2026-05-06 07:16 51.30593 6.80711 1657 ft 169 kts 52°
2026-05-06 07:16 51.31342 6.82307 1973 ft 190 kts 51°
2026-05-06 07:16 51.32193 6.84106 2285 ft 215 kts 53°
2026-05-06 07:16 51.33134 6.86094 2734 ft 239 kts 52°
2026-05-06 07:17 51.34167 6.88331 3340 ft 258 kts 54°
2026-05-06 07:17 51.35078 6.90841 4238 ft 265 kts 72°
2026-05-06 07:17 51.35247 6.92081 4647 ft 267 kts 84°
2026-05-06 07:17 51.35094 6.95050 5618 ft 270 kts 100°
2026-05-06 07:18 51.34787 6.98034 6552 ft 274 kts 100°
2026-05-06 07:18 51.34473 7.01064 7464 ft 279 kts 101°
2026-05-06 07:18 51.34152 7.04164 8393 ft 285 kts 101°
2026-05-06 07:18 51.33825 7.07328 9313 ft 291 kts 101°
2026-05-06 07:19 51.33492 7.10571 10076 ft 302 kts 101°
2026-05-06 07:19 51.33138 7.14005 10388 ft 325 kts 101°
2026-05-06 07:19 51.32761 7.17700 10626 ft 348 kts 101°
2026-05-06 07:19 51.32404 7.21649 10906 ft 367 kts 99°
2026-05-06 07:20 51.32091 7.25747 11521 ft 374 kts 98°
2026-05-06 07:20 51.31803 7.29895 12189 ft 378 kts 97°
2026-05-06 07:20 51.31479 7.34025 12841 ft 381 kts 102°
2026-05-06 07:20 51.30746 7.38095 13508 ft 383 kts 113°
2026-05-06 07:21 51.29534 7.41885 14106 ft 384 kts 124°
2026-05-06 07:21 51.27913 7.45274 14716 ft 385 kts 131°
2026-05-06 07:21 51.26193 7.48570 15327 ft 388 kts 131°
2026-05-06 07:21 51.24462 7.51888 15955 ft 391 kts 131°
2026-05-06 07:22 51.22719 7.55237 16605 ft 394 kts 131°
2026-05-06 07:22 51.20966 7.58615 17225 ft 396 kts 131°
2026-05-06 07:22 51.19203 7.62016 17854 ft 400 kts 131°
2026-05-06 07:22 51.17423 7.65441 18446 ft 403 kts 133°
2026-05-06 07:23 51.15434 7.68584 18998 ft 403 kts 142°
2026-05-06 07:23 51.13212 7.71329 19536 ft 405 kts 144°
2026-05-06 07:23 51.10967 7.74068 20057 ft 408 kts 144°
2026-05-06 07:23 51.08740 7.76795 20562 ft 411 kts 143°
2026-05-06 07:24 51.06469 7.79580 21045 ft 413 kts 144°
2026-05-06 07:24 51.04190 7.82371 21538 ft 415 kts 144°
2026-05-06 07:24 51.01891 7.85179 22004 ft 417 kts 144°
2026-05-06 07:24 50.99582 7.87998 22458 ft 420 kts 144°
2026-05-06 07:25 50.97258 7.90830 22726 ft 421 kts 144°
2026-05-06 07:25 50.94906 7.93695 22770 ft 432 kts 144°
2026-05-06 07:25 50.92493 7.96630 22762 ft 443 kts 144°
2026-05-06 07:25 50.90021 7.99631 22755 ft 450 kts 144°
2026-05-06 07:26 50.87526 8.02653 22753 ft 452 kts 145°
2026-05-06 07:26 50.85079 8.05686 22770 ft 456 kts 141°
2026-05-06 07:26 50.82894 8.09333 23167 ft 458 kts 130°
2026-05-06 07:26 50.81079 8.13473 23590 ft 458 kts 126°
2026-05-06 07:27 50.79315 8.17651 24002 ft 456 kts 126°
2026-05-06 07:27 50.77556 8.21815 24428 ft 455 kts 126°
2026-05-06 07:27 50.75802 8.25964 24863 ft 453 kts 126°
2026-05-06 07:27 50.74052 8.30094 25317 ft 452 kts 126°
2026-05-06 07:28 50.72306 8.34210 25788 ft 450 kts 126°
2026-05-06 07:28 50.70428 8.38129 26245 ft 447 kts 134°
2026-05-06 07:28 50.65649 8.44077 27189 ft 438 kts 154°
2026-05-06 07:29 50.62962 8.46323 27708 ft 436 kts 154°
2026-05-06 07:29 50.60289 8.48565 28246 ft 435 kts 154°
2026-05-06 07:29 50.57629 8.50809 28773 ft 433 kts 154°
2026-05-06 07:29 50.54980 8.53050 29299 ft 431 kts 155°
2026-05-06 07:30 50.52345 8.55281 29854 ft 429 kts 155°
2026-05-06 07:30 50.49719 8.57499 30303 ft 428 kts 155°
2026-05-06 07:30 50.47100 8.59707 30701 ft 428 kts 155°
2026-05-06 07:30 50.44436 8.61758 31083 ft 425 kts 161°
2026-05-06 07:31 50.41685 8.63222 31466 ft 423 kts 166°
2026-05-06 07:31 50.38862 8.64531 31853 ft 423 kts 166°
2026-05-06 07:31 50.36043 8.65844 32245 ft 423 kts 166°
2026-05-06 07:31 50.33226 8.67164 32630 ft 423 kts 166°